Regional Weather Roundup
Issued by NWS

Home | Current Version | Previous Version | Graphics & Text | Print | Product List | Glossary On
Versions: 1 2 3 4 5 6 7 8 9 10 11 12 13 14 15 16 17 18 19 20 21 22 23 24 25 26 27 28 29 30 31 32 33 34 35 36 37 38 39 40 41 42 43 44 45 46 47 48 49 50
000
ASUS44 KMEG 040110
RWRTN
TENNESSEE HOURLY STATE WEATHER ROUNDUP
NATIONAL WEATHER SERVICE MEMPHIS TN
700 PM CST SAT DEC 03 2016

TNZ002-004-019-021-049-052-054-088>092-040200-
WEST TENNESSEE

CITY           SKY/WX    TMP DP  RH WIND       PRES   REMARKS
MEMPHIS INTL   LGT RAIN  44  42  93 E10       30.19F
NWS MEMPHIS      N/A     42 N/A N/A MISG        N/A
JACKSON        LGT RAIN  42  32  67 NE5       30.25F
DYERSBURG      CLOUDY   N/A N/A N/A E7        30.26S
UNION CITY     PTCLDY    39  36  87 CALM      30.27R
PARIS          CLOUDY    37  34  87 CALM      30.27S
HUNTINGDON     CLOUDY    41  37  87 NE3       30.26S
LEXINGTON      CLOUDY    39  39 100 NE6       30.25S WCI  35
$$

TNZ008-025-027-028-033-062-065-066-040200-
NORTH MIDDLE TENNESSEE

CITY           SKY/WX    TMP DP  RH WIND       PRES   REMARKS
NASHVILLE      LGT RAIN  42  35  76 E6        30.29R
PORTLAND       CLOUDY    41  34  75 CALM      30.29R
CLARKSVILLE    CLOUDY    41  31  67 NE6       30.29R
SMYRNA         LGT RAIN  42  36  79 NE3       30.29R
CROSSVILLE     CLOUDY    39  30  70 E3        30.24R
$$

TNZ061-075-076-078-094-096-097-040200-
SOUTH MIDDLE TENNESSEE

CITY           SKY/WX    TMP DP  RH WIND       PRES   REMARKS
FAYETTEVILLE   CLOUDY    41  39  93 N7        30.22F FOG
TULLAHOMA      MOCLDY    39  36  87 NE5       30.24S
WINCHESTER     CLOUDY    39  39 100 N3        30.23F
MCMINNVILLE    CLOUDY    39  39 100 NE3       30.25S
COLUMBIA         N/A    N/A N/A N/A E5        30.24S
SHELBYVILLE    CLOUDY    41  39  93 N3        30.27R
$$

TNZ017-018-042-046-047-040200-
NORTHEAST TENNESSEE

CITY           SKY/WX    TMP DP  RH WIND       PRES   REMARKS
TRI CITIES     CLOUDY    40  30  67 CALM      30.26R
ELIZABETHTON   PTCLDY    39  34  81 CALM      30.25S
$$

TNZ012-013-036-069-073-074-040200-
CENTRAL EAST TENNESSEE

CITY           SKY/WX    TMP DP  RH WIND       PRES   REMARKS
KNOXVILLE      LGT RAIN  43  32  65 NE6       30.24S
OAK RIDGE      CLOUDY    44  32  62 E3        30.27S
DOWNTOWN KNOXV CLOUDY    45  34  65 CALM      30.26S
GATLINBURG     CLEAR     41  30  65 NE3       30.25R
MORRISTOWN     CLOUDY    41  32  70 NE3       30.24S
JACKSBORO      CLOUDY    41  34  75 CALM      30.29S
$$

TNZ083-085-099-040200-
SOUTHEAST TENNESSEE

CITY           SKY/WX    TMP DP  RH WIND       PRES   REMARKS
CHATTANOOGA    LGT RAIN  45  36  70 NE3       30.26F
$$

SKY/WX REPORTED AS FAIR MEANS FEW OR NO CLOUDS BELOW
12 THOUSAND FEET.





USA.gov is the U.S. government's official web portal to all federal, state and local government web resources and services.